Location: Newark
(41.4981°N, 44.1297°E)
Time: 08:46:37
(UTC+00:00)

Hubble Space Telescope - Visible Passes

Search period start: 15 December 2019 00:00
Search period end: 25 December 2019 00:00
Orbit: 536 x 540 km, 28.5° (Epoch: 14 December)

Date Brightness Start Highest point End Pass type
(mag) Time Alt. Az. Time Alt. Az. Time Alt. Az.
15 Dec 3.5 03:33:38 10° SSW 03:35:20 12° S 03:37:02 10° SSE visible
16 Dec 3.4 03:22:41 10° SSW 03:24:35 13° S 03:26:30 10° SSE visible
17 Dec 3.4 03:11:51 10° SSW 03:13:51 13° S 03:15:52 10° SSE visible
18 Dec 3.3 03:01:05 10° SSW 03:03:07 13° S 03:05:09 10° SSE visible
19 Dec 3.3 02:50:24 10° SSW 02:52:23 13° S 02:54:22 10° SSE visible
20 Dec 3.2 02:39:48 10° SSW 02:41:39 13° S 02:43:29 10° SSE visible
21 Dec 3.2 02:29:52 11° SSW 02:30:55 12° S 02:32:30 10° SSE visible
22 Dec 3.3 02:19:54 11° SSW 02:20:09 11° S 02:21:19 10° S visible
